HULIANGWANG DIGUI-09

Last updated on Thu Jan 16 2025 00:02:04 GMT+0000 (Coordinated Universal Time)

1 62331U 24240J 25015.59468969 .00000062 00000+0 89838-4 0 9993 2 62331 86.5036 158.4386 0010331 196.8728 163.2072 13.37562349 4030
UTC large
Height (km)
Speed (km/s)
/
Latitude / Longitude
Inclination (degrees)
Orbital Period (minutes)
Azimuth
Elevation
Range (km)
Doppler Factor

Next 0 passes for location: London (51.5072 / 0.1276)

Sorry there are no passes over London.